EW2270 Weather Reports


time (UTC)temp
F
wind
direction
speed
knots
gust
knots
rain 1hr
in
rain 24hr
in
rain mn
in
humidity
%
barometer
mb
20260505033019 61 118 1.7 3.5 0.00 0.00 0.00 64 1004.4
20260505031521 65 107 1.7 3.5 0.00 0.00 0.00 60 1004.4
20260505030018 68 110 0.9 2.6 0.00 0.00 0.00 56 1004.3
20260505024518 74 97 2.6 4.3 0.00 0.00 0.00 41 1004.3
20260505023020 76 101 2.6 2.6 0.00 0.00 0.00 38 1004.3
20260505021514 77 79 0.0 3.5 0.00 0.00 0.00 34 1004.4
20260505020013 78 74 1.7 4.3 0.00 0.00 0.00 34 1004.5
20260505014513 79 49 4.3 7.0 0.00 0.00 0.00 30 1004.5
20260505013010 79 47 4.3 7.8 0.00 0.00 0.00 29 1004.7
20260505011510 80 24 6.1 9.6 0.00 0.00 0.00 28 1004.8
20260505010016 80 338 5.2 11.3 0.00 0.00 0.00 29 1004.9
20260505004507 81 333 7.8 11.3 0.00 0.00 0.00 25 1004.9
20260505003009 80 327 5.2 10.4 0.00 0.00 0.00 25 1004.9
20260505001504 81 337 6.1 10.4 0.00 0.00 0.00 23 1004.9
20260505000001 80 328 3.5 8.7 0.00 0.00 0.00 27 1004.9
20260504234601 80 321 3.5 8.7 0.00 0.00 0.00 28 1005.0
20260504233058 80 303 4.3 7.0 0.00 0.00 0.00 25 1005.0
20260504231559 81 6 5.2 11.3 0.00 0.00 0.00 26 1005.2
20260504230053 80 336 4.3 8.7 0.00 0.00 0.00 27 1005.3
20260504224551 80 289 5.2 8.7 0.00 0.00 0.00 28 1005.4
20260504223059 80 60 2.6 7.8 0.00 0.00 0.00 30 1005.5
20260504221558 80 274 2.6 8.7 0.00 0.00 0.00 29 1005.7
20260504220045 80 294 3.5 10.4 0.00 0.00 0.00 28 1005.9
20260504214542 80 319 4.3 9.6 0.00 0.00 0.00 31 1006.0
20260504213057 80 337 4.3 7.8 0.00 0.00 0.00 32 1006.2
20260504211541 79 80 0.0 8.7 0.00 0.00 0.00 30 1006.3
20260504210035 79 346 5.2 8.7 0.00 0.00 0.00 30 1006.4
20260504204532 78 257 2.6 7.8 0.00 0.00 0.00 32 1006.6
20260504203043 78 303 4.3 7.8 0.00 0.00 0.00 32 1006.8
20260504201528 78 355 2.6 6.1 0.00 0.00 0.00 33 1006.9
20260504200026 77 293 2.6 8.7 0.00 0.00 0.00 34 1007.0
20260504194531 77 265 3.5 7.8 0.00 0.00 0.00 36 1007.0
20260504193024 77 286 2.6 9.6 0.00 0.00 0.00 34 1007.1
20260504191532 76 284 1.7 7.0 0.00 0.00 0.00 37 1007.1
20260504190020 75 160 0.9 8.7 0.00 0.00 0.00 35 1007.3
20260504184519 74 259 0.9 7.0 0.00 0.00 0.00 38 1007.4
20260504183017 74 266 3.5 7.0 0.00 0.00 0.00 36 1007.5
20260504181518 74 225 3.5 7.0 0.00 0.00 0.00 37 1007.6
20260504180016 72 262 2.6 5.2 0.00 0.00 0.00 40 1007.7
20260504174512 72 272 3.5 7.8 0.00 0.00 0.00 38 1007.7
20260504173011 71 292 3.5 7.0 0.00 0.00 0.00 41 1007.7
20260504171608 70 262 1.7 6.1 0.00 0.00 0.00 41 1007.7
20260504081558 51 99 1.7 1.7 0.00 0.00 0.00 78 1007.4
20260504080114 53 79 0.9 2.6 0.00 0.00 0.00 77 1007.6
20260504044541 57 207 2.6 5.2 0.00 0.00 0.00 71 1007.6
20260504043038 57 204 2.6 4.3 0.00 0.00 0.00 72 1007.4
20260504041538 56 110 0.9 1.7 0.00 0.00 0.00 76 1007.3
20260504040059 58 110 0.9 3.5 0.00 0.00 0.00 72 1007.2
20260504034538 58 142 0.9 1.7 0.00 0.00 0.00 72 1007.1